BEIDOU-3 M9 (C23)

Last updated on Jan. 19, 2020, 4:38 a.m. UTC

1 43581U 18062A   20018.31438269  .00000014  00000-0  00000-0 0  9990
2 43581  54.6470 262.3310 0003259 293.0225 326.2633  1.86231814 10019
UTC
Height (km)
Latitude
Longitude
Inclination
Orbital Period
UTC large
Height (km)
Speed (km/s)
/
Latitude / Longitude
Inclination (degrees)
Orbital Period (minutes)
Azimuth
Elevation
Range (km)
Doppler Factor
iOS Compass Heading
iOS Angle

Next 30 passes for location: Hong Kong

Rise time Rise Azimuth (degrees) Set time Set Azimuth (degrees) Duration Max altitude (degrees)

No matching passes for this satellites